Tracking 31032 objects as of 13-Jul-2025
HD Live streaming from Space Station
objects crossing your sky now

STARLINK-30364

Track STARLINK-30364 now!
10-day predictions
STARLINK-30364 is classified as:


NORAD ID: 57741
Int'l Code: 2023-131K
Perigee: 565.7 km
Apogee: 566.8 km
Inclination: 43.0 °
Period: 95.8 minutes
Semi major axis: 6937 km
RCS: Unknown
Launch date: September 1, 2023
Source: United States (US)
Launch site: AIR FORCE EASTERN TEST RANGE (AFETR)
Your satellite tracking list
Your tracking list is empty




NASA's NSSDC Master Catalog

Two Line Element Set (TLE):
1 57741U 23131K   25193.76687743 -.00000773  00000-0 -42147-4 0  9993
2 57741  43.0032  35.4551 0000804 236.2912 123.7854 15.02531813103832
Source of the keplerian elements: AFSPC